FW9648 Weather Reports


Display with metric or nautical units.
time (UTC)temp
F
wind
direction
speed
MPH
gust
MPH
rain 1hr
in
rain 24hr
in
rain mn
in
humidity
%
barometer
mb
20260504110526 48 99 0.0 0.0 0.00 0.00 0.00 81 1015.2
20260504100442 46 144 2.0 2.0 0.00 0.00 0.00 79 1014.8
20260504081841 48 209 0.0 2.0 0.00 0.00 0.00 75 1015.0
20260504081337 48 127 2.0 5.0 0.00 0.00 0.00 76 1014.8
20260504080833 48 173 0.0 2.0 0.00 0.00 0.00 77 1015.0
20260504080331 48 75 0.0 1.0 0.00 0.00 0.00 77 1014.9
20260504070258 47 106 0.0 2.0 0.00 0.00 0.00 75 1014.9
20260504060219 48 251 0.0 0.0 0.00 0.00 0.00 69 1015.2
20260504050646 50 160 0.0 2.0 0.00 0.00 0.00 66 1015.4
20260504050143 50 128 2.0 2.0 0.00 0.00 0.00 65 1015.1
20260504045641 50 246 0.0 1.0 0.00 0.00 0.00 65 1015.0
20260504045140 50 258 0.0 2.0 0.00 0.00 0.00 65 1015.1
20260504044638 50 216 0.0 2.0 0.00 0.00 0.00 65 1014.9
20260504044135 50 229 0.0 3.0 0.00 0.00 0.00 66 1014.9
20260504043632 50 243 0.0 3.0 0.00 0.00 0.00 65 1015.0
20260504043129 50 151 0.0 4.0 0.00 0.00 0.00 65 1014.9
20260504042626 50 195 0.0 1.0 0.00 0.00 0.00 68 1014.6
20260504042123 50 246 0.0 2.0 0.00 0.00 0.00 68 1014.9
20260504041619 50 195 0.0 2.0 0.00 0.00 0.00 68 1014.8
20260504041115 50 229 3.0 4.0 0.00 0.00 0.00 68 1014.7
20260504040613 49 192 0.0 3.0 0.00 0.00 0.00 72 1014.8
20260504040109 48 240 0.0 0.0 0.00 0.00 0.00 75 1014.8
20260504035606 48 240 0.0 2.0 0.00 0.00 0.00 75 1015.0
20260504035102 48 151 0.0 0.0 0.00 0.00 0.00 75 1014.8
20260504034600 48 151 0.0 1.0 0.00 0.00 0.00 74 1014.8
20260504034057 48 114 0.0 0.0 0.00 0.00 0.00 74 1014.8
20260504033555 48 105 0.0 0.0 0.00 0.00 0.00 73 1014.8
20260504033052 49 105 0.0 0.0 0.00 0.00 0.00 73 1014.6
20260504032549 49 124 2.0 2.0 0.00 0.00 0.00 72 1014.7
20260504032046 48 254 0.0 2.0 0.00 0.00 0.00 72 1014.8
20260504031543 48 123 1.0 4.0 0.00 0.00 0.00 71 1014.5
20260504031039 49 151 1.0 2.0 0.00 0.00 0.00 71 1014.7
20260504030536 49 106 0.0 2.0 0.00 0.00 0.00 70 1014.9
20260504030032 49 123 1.0 3.0 0.00 0.00 0.00 71 1014.8
20260504025530 49 186 1.0 2.0 0.00 0.00 0.00 72 1014.6
20260504025026 48 233 0.0 3.0 0.00 0.00 0.00 72 1015.0
20260504024523 48 215 1.0 3.0 0.00 0.00 0.00 74 1015.0
20260504024020 48 173 0.0 2.0 0.00 0.00 0.00 74 1014.8
20260504023517 48 241 2.0 3.0 0.00 0.00 0.00 74 1014.8
20260504023013 47 106 0.0 3.0 0.00 0.00 0.00 74 1014.8
20260504022508 47 188 0.0 2.0 0.00 0.00 0.00 74 1014.6
20260504022005 47 206 0.0 2.0 0.00 0.00 0.00 74 1014.6
20260504021503 46 187 0.0 2.0 0.00 0.00 0.00 74 1014.7
20260504021000 46 240 1.0 2.0 0.00 0.00 0.00 73 1014.7
20260504020456 47 220 1.0 2.0 0.00 0.00 0.00 72 1014.6
20260504015953 47 215 0.0 1.0 0.00 0.00 0.00 72 1014.4
20260504015449 47 98 0.0 2.0 0.00 0.00 0.00 70 1014.5
20260504014945 47 120 1.0 1.0 0.00 0.00 0.00 70 1014.5
20260504014441 47 99 0.0 1.0 0.00 0.00 0.00 69 1014.3
20260504013938 47 212 0.0 2.0 0.00 0.00 0.00 69 1014.3
20260504013437 47 231 0.0 3.0 0.00 0.00 0.00 68 1014.1
20260504012932 48 215 1.0 2.0 0.00 0.00 0.00 67 1014.1
20260504012431 48 270 1.0 2.0 0.00 0.00 0.00 67 1014.3
20260504011928 48 229 0.0 0.0 0.00 0.00 0.00 66 1014.0
20260504011425 48 229 0.0 0.0 0.00 0.00 0.00 65 1014.0
20260504010920 48 229 0.0 0.0 0.00 0.00 0.00 66 1014.0
20260504010417 48 229 0.0 0.0 0.00 0.00 0.00 65 1014.1
20260504005913 49 229 0.0 0.0 0.00 0.00 0.00 64 1014.0
20260504005410 49 229 0.0 0.0 0.00 0.00 0.00 64 1013.9
20260504004908 50 229 0.0 2.0 0.00 0.00 0.00 62 1014.0
20260504004405 50 246 0.0 1.0 0.00 0.00 0.00 61 1014.0
20260504003902 50 237 0.0 0.0 0.00 0.00 0.00 60 1013.9
20260504003358 51 246 0.0 2.0 0.00 0.00 0.00 59 1013.8
20260504002855 51 261 0.0 2.0 0.00 0.00 0.00 59 1013.8
20260504002352 51 209 1.0 2.0 0.00 0.00 0.00 58 1013.8
20260504001849 52 253 0.0 0.0 0.00 0.00 0.00 57 1013.8
20260504001347 52 253 0.0 0.0 0.00 0.00 0.00 56 1013.7
20260504000843 53 253 0.0 2.0 0.00 0.00 0.00 56 1013.8
20260504000340 53 232 2.0 2.0 0.00 0.00 0.00 55 1013.7
20260503235838 54 240 0.0 2.0 0.00 0.00 0.00 54 1013.8
20260503235335 54 215 0.0 1.0 0.00 0.00 0.00 52 1013.8
20260503234832 55 243 0.0 1.0 0.00 0.00 0.00 51 1013.8
20260503234330 56 230 3.0 3.0 0.00 0.00 0.00 50 1013.6
20260503233828 56 248 2.0 2.0 0.00 0.00 0.00 52 1013.7
20260503233323 58 240 2.0 3.0 0.00 0.00 0.00 47 1013.6
20260503232820 57 240 3.0 3.0 0.00 0.00 0.00 49 1013.7
20260503232318 58 254 2.0 2.0 0.00 0.00 0.00 48 1013.5
20260503231815 58 261 2.0 2.0 0.00 0.00 0.00 46 1013.4
20260503231312 59 241 3.0 3.0 0.00 0.00 0.00 48 1013.4
20260503230808 59 261 0.0 3.0 0.00 0.00 0.00 46 1013.3
20260503230305 61 270 2.0 2.0 0.00 0.00 0.00 44 1013.3
20260503225803 62 240 0.0 3.0 0.00 0.00 0.00 37 1013.4
20260503225258 62 251 0.0 4.0 0.00 0.00 0.00 37 1013.2
20260503224755 62 270 0.0 3.0 0.00 0.00 0.00 43 1013.5
20260503224253 62 270 0.0 3.0 0.00 0.00 0.00 41 1013.4
20260503223750 63 275 0.0 2.0 0.00 0.00 0.00 36 1013.5
20260503223248 64 243 0.0 3.0 0.00 0.00 0.00 29 1013.3
20260503222743 65 342 1.0 5.0 0.00 0.00 0.00 31 1013.4
20260503222242 64 243 0.0 3.0 0.00 0.00 0.00 32 1013.3
20260503221740 64 128 2.0 3.0 0.00 0.00 0.00 28 1013.5
20260503221237 64 281 2.0 5.0 0.00 0.00 0.00 28 1013.6
20260503220734 65 135 2.0 3.0 0.00 0.00 0.00 29 1013.5
20260503220231 65 358 0.0 5.0 0.00 0.00 0.00 31 1013.7
20260503215727 66 180 0.0 5.0 0.00 0.00 0.00 27 1013.6
20260503215224 66 221 2.0 9.0 0.00 0.00 0.00 28 1013.7
20260503214722 67 239 2.0 6.0 0.00 0.00 0.00 27 1013.5
20260503214219 68 234 0.0 3.0 0.00 0.00 0.00 29 1013.5
20260503213717 67 263 1.0 6.0 0.00 0.00 0.00 27 1013.5
20260503213214 67 249 5.0 9.0 0.00 0.00 0.00 28 1013.7
20260503212711 67 240 0.0 7.0 0.00 0.00 0.00 28 1013.5
20260503212209 67 0 2.0 4.0 0.00 0.00 0.00 29 1013.6
20260503211706 67 289 3.0 3.0 0.00 0.00 0.00 30 1013.6
20260503211202 67 270 0.0 8.0 0.00 0.00 0.00 28 1013.5
20260503210658 67 266 2.0 5.0 0.00 0.00 0.00 27 1013.7
20260503210155 67 198 1.0 7.0 0.00 0.00 0.00 29 1013.6
20260503205650 67 308 0.0 4.0 0.00 0.00 0.00 27 1013.7
20260503205146 66 251 0.0 4.0 0.00 0.00 0.00 28 1013.6
20260503204643 66 58 3.0 4.0 0.00 0.00 0.00 29 1013.9
20260503204141 66 206 2.0 6.0 0.00 0.00 0.00 29 1013.9
20260503203638 67 201 2.0 3.0 0.00 0.00 0.00 30 1013.9
20260503203136 66 99 3.0 4.0 0.00 0.00 0.00 31 1014.1
20260503202633 67 305 3.0 4.0 0.00 0.00 0.00 30 1014.1
20260503202131 67 279 0.0 3.0 0.00 0.00 0.00 32 1014.3
20260503201629 66 245 0.0 5.0 0.00 0.00 0.00 29 1014.3
20260503201126 66 299 2.0 3.0 0.00 0.00 0.00 33 1014.6
20260503200621 65 255 3.0 7.0 0.00 0.00 0.00 30 1014.5
20260503200118 65 341 0.0 5.0 0.00 0.00 0.00 33 1014.5
20260503195615 66 254 1.0 5.0 0.00 0.00 0.00 32 1014.5
20260503195112 66 153 3.0 6.0 0.00 0.00 0.00 33 1014.7
20260503194609 66 315 2.0 5.0 0.00 0.00 0.00 36 1014.8
20260503194104 65 240 0.0 8.0 0.00 0.00 0.00 30 1014.8
20260503193601 65 166 2.0 4.0 0.00 0.00 0.00 31 1014.9
20260503193056 64 226 5.0 8.0 0.00 0.00 0.00 32 1015.0
20260503192553 62 112 8.0 8.0 0.00 0.00 0.00 32 1014.8
20260503192048 62 270 3.0 12.0 0.00 0.00 0.00 32 1015.1
20260503191545 63 336 4.0 6.0 0.00 0.00 0.00 34 1015.2
20260503191042 63 256 4.0 6.0 0.00 0.00 0.00 33 1015.3
20260503190539 63 74 0.0 5.0 0.00 0.00 0.00 34 1015.4
20260503190037 63 123 6.0 7.0 0.00 0.00 0.00 34 1015.5
20260503185533 62 172 0.0 8.0 0.00 0.00 0.00 31 1015.9
20260503185032 62 222 7.0 10.0 0.00 0.00 0.00 35 1015.7
20260503184529 62 206 3.0 8.0 0.00 0.00 0.00 31 1015.9
20260503184026 63 240 5.0 5.0 0.00 0.00 0.00 35 1015.8
20260503183522 61 231 6.0 7.0 0.00 0.00 0.00 35 1016.1
20260503183019 62 63 4.0 7.0 0.00 0.00 0.00 39 1016.1
20260503182518 62 123 3.0 4.0 0.00 0.00 0.00 35 1016.1
20260503182015 61 300 3.0 5.0 0.00 0.00 0.00 38 1016.2
20260503181512 62 294 2.0 6.0 0.00 0.00 0.00 34 1016.2
20260503181008 63 119 3.0 7.0 0.00 0.00 0.00 38 1016.0
20260503180506 61 343 2.0 5.0 0.00 0.00 0.00 37 1016.2
20260503180003 61 225 0.0 6.0 0.00 0.00 0.00 33 1016.3
20260503175501 61 303 5.0 6.0 0.00 0.00 0.00 37 1016.6
20260503174957 61 105 1.0 9.0 0.00 0.00 0.00 38 1016.4
20260503174455 60 113 2.0 9.0 0.00 0.00 0.00 34 1016.4
20260503173950 60 189 4.0 7.0 0.00 0.00 0.00 34 1016.6
20260503173446 60 283 3.0 5.0 0.00 0.00 0.00 40 1016.7
20260503172943 60 45 6.0 7.0 0.00 0.00 0.00 37 1016.9
20260503172440 59 114 5.0 13.0 0.00 0.00 0.00 37 1016.6
20260503171937 60 79 4.0 6.0 0.00 0.00 0.00 38 1016.8
20260503171433 59 339 3.0 5.0 0.00 0.00 0.00 38 1016.7
20260503170931 59 226 4.0 7.0 0.00 0.00 0.00 37 1016.8
20260503170427 59 242 5.0 6.0 0.00 0.00 0.00 35 1016.9
20260503150819 53 222 8.0 13.0 0.00 0.00 0.00 38 1018.3
20260503150315 55 285 4.0 6.0 0.00 0.00 0.00 40 1018.2
20260503140240 53 90 3.0 10.0 0.00 0.00 0.00 42 1018.3
20260503131209 51 12 1.0 5.0 0.00 0.00 0.00 46 1018.0
20260503130707 52 244 3.0 7.0 0.00 0.00 0.00 45 1018.1
20260503130204 51 239 4.0 4.0 0.00 0.00 0.00 50 1018.2